User: anonymous   Login
Location: Unspecified
(40.8819°N, 0.0000°E)
Time: 07:12:44
(UTC+00:00)
Language:

Envisat - Orbit

View from above orbital plane
View from above orbital plane
View from above satellite
View from above satellite

Ground track
Ground track

The orbit data is extracted from the following two-line orbital elements,

1 27386U 02009A   24063.84817178  .00000209  00000-0  82101-4 0  9993
2 27386  98.2695  28.6756 0001364  90.0149 283.3806 14.38512236153361
Epoch (UTC): 03 March 2024 20:21:22
Eccentricity: 0.0001364
inclination: 98.2695°
perigee height: 762 km
apogee height: 764 km
right ascension of ascending node: 28.6756°
argument of perigee: 90.0149°
revolutions per day: 14.38512236
mean anomaly at epoch: 283.3806°
orbit number at epoch: 15336

The dashed part of the orbit path shows where the satellite is in the earth's shadow,  

DLR